Location: Avully
(45.9633°N, 6.0228°E)
Time: 21:31:33
(UTC+00:00)

Cosmos 2360 Rocket - Pass Details

Date: 08 August 2024
Orbit: 834 x 843 km, 71.0° (Epoch: 10 September)

Event Time Altitude Azimuth Distance (km) Brightness Sun altitude
Exits shadow 01:42:15 37° 259° (WSW) 1,296 2.8 -22.3°
Maximum altitude 01:43:55 47° 303° (WNW) 1,107 2.7 -22.1°
Drops below altitude 10° 01:49:22 10° 17° (NNE) 2,470 5.7 -21.6°
Sets 01:51:56 0° 23° (NNE) 3,407 6.8 -21.4°
